Regional Weather Roundup
Issued by NWS

Home | Current Version | Previous Version | Text Only | Print | Product List | Glossary Off
Versions: 1 2 3 4 5 6 7 8 9 10 11 12 13 14 15 16 17 18 19 20 21 22 23 24 25 26 27 28 29 30 31 32 33 34 35 36 37 38 39 40 41 42 43 44 45 46 47 48 49 50

000
ASUS43 KDMX 011607
RWRIA

WEATHER ROUNDUP FOR IOWA
NATIONAL WEATHER SERVICE DES MOINES IA
1000 AM CST SUN MAR 01 2015

NOTE: "FAIR" INDICATES FEW OR NO CLOUDS BELOW 12,000 FEET WITH NO
SIGNIFICANT WEATHER AND/OR OBSTRUCTIONS TO VISIBILITY.

* - THESE STATIONS ARE NOT NWS STATIONS...THUS NOT UNDER NWS
QUALITY CONTROL.  THEY ALSO DO NOT REPORT WEATHER SUCH
AS PRECIPITATION OR FOG.

IAZ001>003-012>014-020>022-031>034-043>046-011700-
   NORTHWEST IOWA

CITY           SKY/WX    TMP DP  RH WIND       PRES   REMARKS
CARROLL *      SUNNY     23  16  74 NW13      30.35R WCI  11
CHEROKEE *     PTSUNNY   19  14  79 N3        30.35R
DENISON *      MOSUNNY   21  18  86 NW7       30.34R WCI  13
LE MARS *      MOSUNNY   21  16  79 W5        30.36S WCI  15
ORANGE CITY *  MOSUNNY   21  16  79 CALM      30.33R
SHELDON *      MOSUNNY   19  12  73 W8        30.31S WCI   9
SIOUX CITY     CLOUDY    24  15  68 NW7       30.38R WCI  16
SPENCER        CLOUDY    20  11  68 W8        30.32S WCI  10
STORM LAKE *   SUNNY     19  14  79 NW10      30.33R WCI   8
$$

IAZ055>058-069>071-079>083-090>094-011700-
   SOUTHWEST IOWA

CITY           SKY/WX    TMP DP  RH WIND       PRES   REMARKS
ATLANTIC *     MOSUNNY   25  18  74 W9        30.37S WCI  15
AUDUBON *      SUNNY     23  18  80 W10       30.35S WCI  12
CLARINDA *     CLOUDY    27  19  74 W7        30.40F WCI  19
COUNCIL BLFS * SUNNY     25  18  74 NW7       30.36R WCI  17
CRESTON *      PTSUNNY   23  18  80 W9        30.36F WCI  13
HARLAN  *      MOSUNNY   21  19  93 W8        30.40R WCI  12
LAMONI         CLOUDY    23  17  78 W10       30.37S WCI  12
RED OAK *      SUNNY     27  19  74 W6        30.38F WCI  20
SHENANDOAH *   PTSUNNY   27  18  69 W6        30.40S WCI  20
$$

IAZ047>049-059>061-072>074-084-011700-
   CENTRAL IOWA

CITY           SKY/WX    TMP DP  RH WIND       PRES   REMARKS
AMES           SUNNY     23  15  71 W16       30.36R WCI  10
ANKENY *       CLOUDY    25  18  74 W9        30.37F WCI  15
CHARITON *     MIX PCPN  23  18  80 W8G14     30.37F WCI  14
DES MOINES     PTSUNNY   26  16  65 W7        30.37S WCI  18
GRINNELL*      MOSUNNY   23  19  86 SW9       30.37R WCI  13
KNOXVILLE *    CLOUDY    23  16  74 W9        30.37S WCI  13
MARSHALLTOWN   MOSUNNY   21  16  81 SW12      30.35R WCI   9
PELLA *        LGT SNOW  25  21  86 W5        30.39F WCI  19
PERRY *          N/A     25  19  80 W15       30.36S WCI  12
$$

IAZ004>006-015-016-023>025-035-036-011700-
   NORTH CENTRAL IOWA

CITY           SKY/WX    TMP DP  RH WIND       PRES   REMARKS
ALGONA *       SUNNY     19  18  93 NW9       30.33R WCI   9
CLARION *      SUNNY     18  18 100 NW12      30.33R WCI   5
ESTHERVILLE    PTSUNNY   19  10  68 NW12      30.30S WCI   7
FORT DODGE *   PTSUNNY   19  14  79 NW7       30.35R WCI  10
MASON CITY     SUNNY     16  12  84 W13       30.32R WCI   2
FOREST CITY *  SUNNY     18  14  86 W5        30.30S WCI  11
IOWA FALLS *     N/A     23  16  74 W17       30.34R HAZE    WCI   9
$$

IAZ007>011-017>019-026>030-037>042-050>054-066-011700-
   NORTHEAST IOWA

CITY           SKY/WX    TMP DP  RH WIND       PRES   REMARKS
CEDAR RAPIDS   PTSUNNY   19  16  88 S6        30.36R FOG     WCI  11
CHARLES CITY * CLOUDY    18  16  93 W14G20    30.32R WCI   4
CLINTON *      PTSUNNY   16  12  86 CALM      30.41R VSB 3/4
DECORAH *      CLOUDY    18  14  86 W8G18     30.29S WCI   7
DUBUQUE        CLOUDY    17  15  92 SW6       30.32F FOG     WCI   9
MONTICELLO *   CLOUDY    16  16 100 CALM      30.36R
OELWEIN *      SUNNY     14  12  92 S9        30.33R WCI   2
WATERLOO       SUNNY     18  14  84 SW9       30.34R FOG     WCI   7
$$

IAZ064-065-067-068-078-011700-
   EAST CENTRAL IOWA

CITY           SKY/WX    TMP DP  RH WIND       PRES   REMARKS
DAVENPORT      LGT SNOW  18  15  88 SW3       30.38S FOG
IOWA CITY      CLOUDY    17  15  92 CALM      30.41R FOG
MT. PLEASANT * LGT SNOW  21  19  93 CALM      30.40S
MUSCATINE *    PTSUNNY   18  16  93 S6        30.41S FOG     WCI   9
QUAD CITIES    CLOUDY    19  16  88 CALM      30.38S FOG
$$

IAZ062-063-075>077-085>089-095>099-011700-
   SOUTHEAST IOWA

CITY           SKY/WX    TMP DP  RH WIND       PRES   REMARKS
BURLINGTON     LGT SNOW  22  18  85 N3        30.39S FOG
FAIRFIELD *    CLOUDY    21  18  86 CALM      30.39S
FORT MADISON * LGT SNOW  21  18  86 CALM      30.40S
KEOKUK *       MIX PCPN  23  19  86 N7        30.39S WCI  15
OSKALOOSA *    MIX PCPN  21  19  93 W8        30.39S WCI  12
CENTERVILLE *    N/A     25  19  80 W5        30.39S WCI  19
OTTUMWA        CLOUDY    21  18  88 W5        30.39R FOG     WCI  15
WASHINGTON *   CLOUDY    19  19 100 CALM      30.39S FOG
$$

ABBREVIATIONS USED IN REMARKS
   TC - TEMPERATURES IN CELSIUS
  WCI - WIND CHILL INDEX
   HX - HEAT INDEX
  VSB - VISIBILITY
$$




USA.gov is the U.S. government's official web portal to all federal, state and local government web resources and services.